Location: Saluda
(35.2377°N, 82.3468°W)
Time: 17:48:29
(UTC+00:00)

Transit 2A - Pass Details

Date: 09 October 2022
Orbit: 598 x 959 km, 66.7° (Epoch: 06 December)

Event Time Altitude Azimuth Distance (km) Brightness Sun altitude
Rises 10:54:53 0° 348° (NNW) 2,998 8.9 -8.1°
Reaches altitude 10° 10:57:38 10° 5° (N) 2,138 8.4 -7.5°
Maximum altitude 11:01:19 21° 55° (NE) 1,588 8.4 -6.8°
Drops below altitude 10° 11:05:16 10° 104° (ESE) 2,305 10.2 -6.0°
Sets 11:08:20 0° 119° (ESE) 3,304 10.6 -5.4°
